Regional Weather Roundup
Issued by NWS

Home | Current Version | Previous Version | Graphics & Text | Print | Product List | Glossary Off
Versions: 1 2 3 4 5 6 7 8 9 10 11 12 13 14 15 16 17 18 19 20 21 22 23 24 25 26 27 28 29 30 31 32 33 34 35 36 37 38 39 40 41 42 43 44 45 46 47 48 49 50

000
ASUS43 KDTX 171110
RWRMI
MICHIGAN HOURLY REGIONAL WEATHER ROUNDUP
NATIONAL WEATHER SERVICE DETROIT/PONTIAC MI
700 AM EDT WED SEP 17 2014

NOTE: "FAIR" INDICATES FEW OR NO CLOUDS BELOW 12,000 FEET WITH NO
SIGNIFICANT WEATHER AND/OR OBSTRUCTION TO VISIBILITY.

MIZ047>049-052>055-059>063-066>070-074>076-081>083-171200-
SOUTHEAST LOWER MICHIGAN

CITY           SKY/WX    TMP DP  RH WIND       PRES   REMARKS
ADRIAN         CLEAR     39  38  96 CALM      30.08S
ALMA           CLEAR     39  38  98 CALM      30.05S
ANN ARBOR      FOG       32  30  92 CALM      30.06S VSB 1/2
BAD AXE        CLEAR     42  42 100 S3        30.04S
CARO           CLEAR     39  39  98 CALM      30.04S
DETROIT CITY   CLEAR     49  43  80 CALM      30.06S
DETROIT        PTCLDY    45  41  86 SW3       30.07R
FLINT          CLEAR     40  38  93 CALM      30.06S
GROSSE ILE     CLEAR     46  43  87 CALM      30.05S
HILLSDALE      PTCLDY    35  35 100 CALM      30.06F FOG
HOWELL         CLEAR     40  39  97 CALM      30.05S

CITY           SKY/WX    TMP DP  RH WIND       PRES   REMARKS
JACKSON        CLEAR     38  35  89 CALM      30.06S
LAMBERTVILLE   CLEAR     43  41  93 CALM      30.08R FOG
LANSING        CLEAR     42  39  89 CALM      30.06S
LAPEER         FAIR      37  37  98 CALM      30.05S
MASON            N/A     37  37  97 CALM      30.06S FOG
MONROE         CLEAR     41  39  93 CALM      30.06R
MT. CLEMENS    CLEAR     44  40  89 SW2       30.04S
PONTIAC        PTCLDY    44  41  89 CALM      30.05R
PORT HOPE        N/A     48  44  86 SW8       30.00S
PORT HURON     PTCLDY    37  37 100 CALM      30.05S FOG
TRI CITIES     CLEAR     44  40  85 SW5       30.04S
TROY           CLEAR     46  42  87 CALM      30.07S
SAGINAW HB     CLEAR     41  41 100 S5        30.04S
$$
MIZ043>046-050>051-056>058-064>065-071>073-077>080-171200-
SOUTHWEST LOWER MICHIGAN

CITY           SKY/WX    TMP DP  RH WIND       PRES   REMARKS
BATTLE CREEK   CLEAR     40  37  89 CALM      30.06F
BENTON HARBOR  CLEAR     38  38 100 CALM      30.05F
BIG RAPIDS     CLEAR     37  37 100 CALM      30.03S
COLDWATER      CLEAR     38  38  97 CALM      30.07S
FREMONT        FAIR      39  39  99 CALM      30.03S
HOLLAND        CLEAR     44  40  85 CALM      30.05S
GRAND RAPIDS   CLEAR     42  39  89 SE3       30.05S
IONIA          FAIR      39  38  95 CALM      30.04F
KALAMAZOO      CLEAR     40  38  93 CALM      30.07S
LUDINGTON      CLEAR     41  40  97 CALM      30.02S
MARSHALL       CLEAR     34  33  96 CALM      30.06S
MOUNT PLEASANT   N/A     39  38  97 CALM      30.03S FOG
MUSKEGON       CLEAR     42  38  85 SE3       30.04S
SOUTH HAVEN    CLEAR     42  41  97 CALM      30.05S
$$
MIZ016>042-171200-
NORTHERN LOWER MICHIGAN

CITY           SKY/WX    TMP DP  RH WIND       PRES   REMARKS
ALPENA         CLOUDY    48  44  86 SW3       29.97F
BEAVER ISLAND  CLOUDY    49  48  98 CALM      29.95S
BELLAIRE       CLOUDY    51  47  87 CALM      29.99R
CADILLAC       CLEAR     38  36  92 CALM      30.01S FOG
CHARLEVOIX     CLOUDY    56  53  87 S5        29.99R
FRANKFORT      CLEAR     46  43  89 CALM      29.99F
GAYLORD        CLOUDY    47  45  93 SW6       29.98S
GRAYLING       MOCLDY    49  48  97 W5        30.00S
HARBOR SPRINGS CLOUDY    53  49  87 CALM      29.96S
HOUGHTON LAKE  CLEAR     47  45  93 SW6       30.01F
MANISTEE       CLEAR     37  36  93 E3        30.02S
OSCODA         MOCLDY    44  42  92 SW3       29.98F
PELLSTON       MOCLDY    46  45  96 CALM      29.95S
ROGERS CITY    CLOUDY    48  47  94 CALM      29.97F
TRAVERSE CITY  PTCLDY    50  46  86 S3        29.98S
$$
MIZ007>008-015-171200-
EASTERN UPPER MICHIGAN

CITY           SKY/WX    TMP DP  RH WIND       PRES   REMARKS
KINROSS        PTCLDY    45  45 100 CALM      29.95S
MACKINAC ISLAN MOCLDY    51  48  91 SE3       29.94F
NEWBERRY       CLOUDY    43  43  99 S5        29.93F
S. S. MARIE    CLOUDY    46  44  93 NE5       29.95S
MUNISING         N/A     50  43  77 SW10      29.90F
$$
MIZ004>006-011>014-085-171200-
CENTRAL UPPER MICHIGAN

CITY           SKY/WX    TMP DP  RH WIND       PRES   REMARKS
MANISTIQUE     CLOUDY    41  41  99 CALM      29.94S
ESCANABA       CLOUDY    48  45  87 W3        29.96R
MENOMINEE      CLEAR     46  41  81 W5        29.97S
SAWYER-GWINN   PTCLDY    45  43  93 S6        29.91F
$$
MIZ001>003-009>011-084-171200-
WESTERN UPPER MICHIGAN

CITY           SKY/WX    TMP DP  RH WIND       PRES   REMARKS
IRON MOUNTAIN  PTCLDY    49  41  74 W5        29.95S
HOUGHTON       CLOUDY    52  45  77 W10       29.89S
COPPER HARBOR    N/A     51  47  86 CALM      29.88S
IRONWOOD       CLEAR     50  43  76 SW8       29.91S
$$

ABBREVIATIONS USED IN REMARKS
   TC - TEMPERATURE IN CELSIUS
  WCI - WIND CHILL INDEX
   HX - HEAT INDEX
  VSB - VISIBILITY



USA.gov is the U.S. government's official web portal to all federal, state and local government web resources and services.